KB6VSE Weather Reports


Display with metric or nautical units.
time (UTC)temp
F
wind
direction
speed
MPH
gust
MPH
rain 1hr
in
rain 24hr
in
rain mn
in
humidity
%
barometer
mb
20260905140057 51 0 0.0 0.0 0.00 0.00 0.00 94 1017.3
20260905134558 51 0 0.0 0.0 0.00 0.00 0.00 94 1017.2
20260905133051 51 0 0.0 0.0 0.00 0.00 0.00 94 1017.2
20260905131555 51 0 0.0 0.0 0.00 0.00 0.00 94 1017.2
20260905130055 51 0 0.0 0.0 0.00 0.00 0.00 94 1017.2
20260905124551 52 0 0.0 0.0 0.00 0.00 0.00 94 1017.1
20260905123055 51 0 0.0 0.0 0.00 0.00 0.00 94 1017.2
20260905121556 52 0 0.0 0.0 0.00 0.00 0.00 94 1017.2
20260905120051 52 0 0.0 0.0 0.00 0.00 0.00 94 1017.3
20260905114606 52 0 0.0 0.0 0.00 0.00 0.00 94 1017.3
20260905113055 52 0 0.0 0.0 0.00 0.00 0.00 94 1017.3
20260905111607 52 0 0.0 0.0 0.00 0.00 0.00 94 1017.3
20260905104551 52 0 0.0 0.0 0.00 0.00 0.00 94 1017.6
20260905103056 52 0 0.0 0.0 0.00 0.00 0.00 94 1017.5
20260905101555 52 0 0.0 0.0 0.00 0.00 0.00 94 1017.5
20260905100105 52 0 0.0 0.0 0.00 0.00 0.00 94 1017.6
20260905094606 52 0 0.0 0.0 0.00 0.00 0.00 94 1017.5
20260905093054 52 0 0.0 0.0 0.00 0.00 0.00 93 1017.5
20260905091607 52 0 0.0 0.0 0.00 0.00 0.00 93 1017.5
20260905090055 52 0 0.0 0.0 0.00 0.00 0.00 93 1017.6
20260905084559 52 0 0.0 0.0 0.00 0.00 0.00 93 1017.6
20260905083051 52 0 0.0 0.0 0.00 0.00 0.00 93 1017.6
20260905081559 52 0 0.0 0.0 0.00 0.00 0.00 92 1017.6
20260905080100 52 0 0.0 0.0 0.00 0.00 0.00 92 1017.5
20260905074557 52 0 0.0 0.0 0.00 0.00 0.00 91 1017.5
20260905073100 52 0 0.0 0.0 0.00 0.00 0.00 91 1017.3
20260905071603 53 0 0.0 0.0 0.00 0.00 0.00 90 1017.3
20260905070059 53 0 0.0 0.0 0.00 0.00 0.00 90 1017.3
20260905064557 53 0 0.0 0.0 0.00 0.00 0.00 90 1017.4
20260905063050 54 0 0.0 0.0 0.00 0.00 0.00 89 1017.3
20260905061607 54 0 0.0 0.0 0.00 0.00 0.00 89 1017.2
20260905060059 55 0 0.0 0.0 0.00 0.00 0.00 89 1017.2
20260905054555 55 0 0.0 0.0 0.00 0.00 0.00 88 1017.3
20260905053054 55 0 0.0 0.0 0.00 0.00 0.00 88 1017.2
20260905051550 56 0 0.0 0.0 0.00 0.00 0.00 87 1017.3
20260905050058 57 0 0.0 0.0 0.00 0.00 0.00 85 1017.2
20260905044554 57 0 0.0 0.0 0.00 0.00 0.00 85 1017.1
20260905043112 58 0 0.0 0.0 0.00 0.00 0.00 84 1017.0
20260905041548 59 0 0.0 0.0 0.00 0.00 0.00 83 1017.0
20260905040117 59 0 0.0 0.0 0.00 0.00 0.00 81 1016.8
20260905034558 60 0 0.0 0.0 0.00 0.00 0.00 80 1016.6
20260905033053 61 0 0.0 0.0 0.00 0.00 0.00 77 1016.3
20260905031558 62 0 0.0 0.0 0.00 0.00 0.00 75 1016.0
20260905030057 63 0 0.0 0.0 0.00 0.00 0.00 73 1016.0
20260905024550 64 0 0.0 0.0 0.00 0.00 0.00 69 1015.8
20260905023104 66 0 0.0 0.0 0.00 0.00 0.00 67 1015.9
20260905021556 67 0 0.0 0.0 0.00 0.00 0.00 62 1015.7
20260905020054 68 0 0.0 0.0 0.00 0.00 0.00 61 1015.8
20260905014550 69 0 0.0 1.0 0.00 0.00 0.00 58 1015.6
20260905013057 70 0 0.0 1.0 0.00 0.00 0.00 58 1015.7
20260905011555 70 0 0.0 1.0 0.00 0.00 0.00 57 1015.6
20260905010054 72 0 0.0 1.0 0.00 0.00 0.00 53 1015.4
20260905004613 72 0 0.0 0.0 0.00 0.00 0.00 55 1015.4
20260905003053 70 0 0.0 0.0 0.00 0.00 0.00 56 1015.4
20260905001555 71 0 0.0 0.0 0.00 0.00 0.00 53 1015.4
20260905000051 72 0 0.0 0.0 0.00 0.00 0.00 52 1015.4
20260904234558 73 0 0.0 1.0 0.00 0.00 0.00 51 1015.4
20260904233054 72 0 0.0 0.0 0.00 0.00 0.00 51 1015.5
20260904231558 72 0 0.0 1.0 0.00 0.00 0.00 51 1015.4
20260904230108 73 0 0.0 0.0 0.00 0.00 0.00 54 1015.4
20260904224557 71 0 0.0 0.0 0.00 0.00 0.00 59 1015.6
20260904223055 70 0 0.0 0.0 0.00 0.00 0.00 59 1015.7
20260904221557 70 0 0.0 0.0 0.00 0.00 0.00 57 1015.9
20260904220110 69 0 0.0 2.0 0.00 0.00 0.00 60 1016.0
20260904214554 68 0 0.0 0.0 0.00 0.00 0.00 61 1016.0
20260904213058 68 0 0.0 0.0 0.00 0.00 0.00 62 1016.0
20260904211609 68 0 0.0 0.0 0.00 0.00 0.00 61 1016.0
20260904210058 68 0 0.0 0.0 0.00 0.00 0.00 62 1015.8
20260904204559 68 0 0.0 0.0 0.00 0.00 0.00 62 1015.8
20260904203058 69 0 0.0 1.0 0.00 0.00 0.00 59 1015.7
20260904201557 70 0 0.0 1.0 0.00 0.00 0.00 58 1015.8
20260904200055 71 0 0.0 0.0 0.00 0.00 0.00 56 1015.8
20260904194558 70 0 0.0 1.0 0.00 0.00 0.00 57 1015.9
20260904193050 69 0 0.0 0.0 0.00 0.00 0.00 56 1016.0
20260904191555 69 0 0.0 0.0 0.00 0.00 0.00 57 1016.1
20260904190058 68 0 0.0 0.0 0.00 0.00 0.00 57 1016.2
20260904184556 67 0 0.0 0.0 0.00 0.00 0.00 62 1016.4
20260904183118 65 0 0.0 0.0 0.00 0.00 0.00 68 1016.4
20260904181557 63 0 0.0 0.0 0.00 0.00 0.00 74 1016.5
20260904180116 62 0 0.0 0.0 0.00 0.00 0.00 78 1016.5
20260904174608 61 0 0.0 0.0 0.00 0.00 0.00 78 1016.6
20260904173057 59 0 0.0 0.0 0.00 0.00 0.00 81 1016.8
20260904171558 58 0 0.0 0.0 0.00 0.00 0.00 82 1016.6
20260904170059 57 0 0.0 0.0 0.00 0.00 0.00 85 1016.7
20260904164557 55 0 0.0 0.0 0.00 0.00 0.00 88 1016.5
20260904163052 54 0 0.0 0.0 0.00 0.00 0.00 89 1016.7
20260904161601 53 0 0.0 0.0 0.00 0.00 0.00 91 1016.6
20260904160059 52 0 0.0 0.0 0.00 0.00 0.00 93 1016.6
20260904154555 51 0 0.0 0.0 0.00 0.00 0.00 93 1016.7
20260904153100 51 0 0.0 0.0 0.00 0.00 0.00 93 1016.5
20260904151558 51 0 0.0 0.0 0.00 0.00 0.00 94 1016.5
20260904144605 51 0 0.0 0.0 0.00 0.00 0.00 94 1016.2
20260904143056 50 0 0.0 0.0 0.00 0.00 0.00 94 1016.2
20260904141600 50 0 0.0 0.0 0.00 0.00 0.00 94 1015.8